Time,TemperatureF,DewpointF,PressureIn,WindDirection,WindDirectionDegrees,WindSpeedMPH,WindSpeedGustMPH,Humidity,HourlyPrecipIn,Conditions,Clouds,dailyrainin,SoftwareType,DateUTC
2013-05-04 00:23:00,65.0,34.0,-100.00,ESE,109,7.0,16.0,32,0.00,,,0.00,,2013-05-04 04:23:00,
2013-05-04 00:33:00,65.0,34.0,-100.00,ESE,109,7.0,16.0,32,0.00,,,0.00,,2013-05-04 04:33:00,
2013-05-04 00:42:00,65.0,34.0,-100.00,ESE,109,7.0,16.0,32,0.00,,,0.00,,2013-05-04 04:42:00,
2013-05-04 00:52:00,65.0,34.0,-100.00,ESE,109,7.0,16.0,32,0.00,,,0.00,,2013-05-04 04:52:00,
2013-05-04 01:22:00,64.0,34.0,-100.00,East,101,7.0,16.0,33,0.00,,,0.00,,2013-05-04 05:22:00,
2013-05-04 01:32:00,64.0,34.0,-100.00,East,101,7.0,16.0,33,0.00,,,0.00,,2013-05-04 05:32:00,
2013-05-04 01:43:00,64.0,34.0,-100.00,East,101,7.0,16.0,33,0.00,,,0.00,,2013-05-04 05:43:00,
2013-05-04 01:52:00,64.0,34.0,-100.00,East,101,7.0,16.0,33,0.00,,,0.00,,2013-05-04 05:52:00,
2013-05-04 02:22:00,62.0,37.0,-100.00,East,101,7.0,12.0,39,0.00,,,0.00,,2013-05-04 06:22:00,
2013-05-04 02:32:00,62.0,37.0,-100.00,East,101,7.0,12.0,39,0.00,,,0.00,,2013-05-04 06:32:00,
2013-05-04 02:42:00,62.0,37.0,-100.00,East,101,7.0,12.0,39,0.00,,,0.00,,2013-05-04 06:42:00,
2013-05-04 02:52:00,62.0,37.0,-100.00,East,101,7.0,12.0,39,0.00,,,0.00,,2013-05-04 06:52:00,
2013-05-04 03:22:00,60.0,39.0,-100.00,East,99,6.0,11.0,45,0.00,,,0.00,,2013-05-04 07:22:00,
2013-05-04 03:32:00,60.0,39.0,-100.00,East,99,6.0,11.0,45,0.00,,,0.00,,2013-05-04 07:32:00,
2013-05-04 03:42:00,60.0,39.0,-100.00,East,99,6.0,11.0,45,0.00,,,0.00,,2013-05-04 07:42:00,
2013-05-04 03:52:00,60.0,39.0,-100.00,East,99,6.0,11.0,45,0.00,,,0.00,,2013-05-04 07:52:00,
2013-05-04 04:22:00,59.0,41.0,-100.00,East,97,7.0,11.0,52,0.00,,,0.00,,2013-05-04 08:22:00,
2013-05-04 04:32:00,59.0,41.0,-100.00,East,97,7.0,11.0,52,0.00,,,0.00,,2013-05-04 08:32:00,
2013-05-04 04:42:00,59.0,41.0,-100.00,East,97,7.0,11.0,52,0.00,,,0.00,,2013-05-04 08:42:00,
2013-05-04 04:52:00,59.0,41.0,-100.00,East,97,7.0,11.0,52,0.00,,,0.00,,2013-05-04 08:52:00,
2013-05-04 05:22:00,58.0,43.0,-100.00,East,90,7.0,12.0,57,0.00,,,0.00,,2013-05-04 09:22:00,
2013-05-04 05:32:00,58.0,43.0,-100.00,East,90,7.0,12.0,57,0.00,,,0.00,,2013-05-04 09:32:00,
2013-05-04 05:42:00,58.0,43.0,-100.00,East,90,7.0,12.0,57,0.00,,,0.00,,2013-05-04 09:42:00,
2013-05-04 05:52:00,58.0,43.0,-100.00,East,90,7.0,12.0,57,0.00,,,0.00,,2013-05-04 09:52:00,
2013-05-04 06:23:00,56.0,44.0,-100.00,East,91,7.0,12.0,63,0.00,,,0.00,,2013-05-04 10:23:00,
2013-05-04 06:33:00,56.0,44.0,-100.00,East,91,7.0,12.0,63,0.00,,,0.00,,2013-05-04 10:33:00,
2013-05-04 06:42:00,56.0,44.0,-100.00,East,91,7.0,12.0,63,0.00,,,0.00,,2013-05-04 10:42:00,
2013-05-04 06:52:00,56.0,44.0,-100.00,East,91,7.0,12.0,63,0.00,,,0.00,,2013-05-04 10:52:00,
2013-05-04 06:57:00,57.0,44.0,-100.00,East,94,7.0,14.0,61,0.00,,,0.00,,2013-05-04 10:57:00,
2013-05-04 07:22:00,57.0,44.0,-100.00,East,94,7.0,14.0,61,0.00,,,0.00,,2013-05-04 11:22:00,
2013-05-04 07:32:00,57.0,44.0,-100.00,East,94,7.0,14.0,61,0.00,,,0.00,,2013-05-04 11:32:00,
2013-05-04 07:46:00,57.0,44.0,-100.00,East,94,7.0,14.0,61,0.00,,,0.00,,2013-05-04 11:46:00,
2013-05-04 08:30:00,58.0,43.0,-100.00,East,101,8.0,20.0,57,0.00,,,0.00,,2013-05-04 12:30:00,
2013-05-04 08:37:00,58.0,43.0,-100.00,East,101,8.0,20.0,57,0.00,,,0.00,,2013-05-04 12:37:00,
2013-05-04 08:52:00,58.0,43.0,-100.00,East,101,8.0,20.0,57,0.00,,,0.00,,2013-05-04 12:52:00,
2013-05-04 09:22:00,59.0,41.0,-100.00,ESE,105,10.0,20.0,52,0.00,,,0.00,,2013-05-04 13:22:00,
2013-05-04 09:32:00,59.0,41.0,-100.00,ESE,105,10.0,20.0,52,0.00,,,0.00,,2013-05-04 13:32:00,
2013-05-04 09:42:00,59.0,41.0,-100.00,ESE,105,10.0,20.0,52,0.00,,,0.00,,2013-05-04 13:42:00,
2013-05-04 09:52:00,59.0,41.0,-100.00,ESE,105,10.0,20.0,52,0.00,,,0.00,,2013-05-04 13:52:00,
2013-05-04 10:21:00,62.0,42.0,-100.00,ESE,106,9.0,20.0,47,0.00,,,0.00,,2013-05-04 14:21:00,
2013-05-04 10:32:00,62.0,42.0,-100.00,ESE,106,9.0,20.0,47,0.00,,,0.00,,2013-05-04 14:32:00,
2013-05-04 10:42:00,62.0,42.0,-100.00,ESE,106,9.0,20.0,47,0.00,,,0.00,,2013-05-04 14:42:00,
2013-05-04 10:52:00,62.0,42.0,-100.00,ESE,106,9.0,20.0,47,0.00,,,0.00,,2013-05-04 14:52:00,
2013-05-04 11:22:00,63.0,40.0,-100.00,ESE,105,9.0,18.0,42,0.00,,,0.00,,2013-05-04 15:22:00,
2013-05-04 11:33:00,63.0,40.0,-100.00,ESE,105,9.0,18.0,42,0.00,,,0.00,,2013-05-04 15:33:00,
2013-05-04 11:43:00,63.0,40.0,-100.00,ESE,105,9.0,18.0,42,0.00,,,0.00,,2013-05-04 15:43:00,
2013-05-04 11:52:00,63.0,40.0,-100.00,ESE,105,9.0,18.0,42,0.00,,,0.00,,2013-05-04 15:52:00,
2013-05-04 12:22:00,66.0,40.0,-100.00,East,81,7.0,16.0,39,0.00,,,0.00,,2013-05-04 16:22:00,
2013-05-04 12:33:00,66.0,40.0,-100.00,East,81,7.0,16.0,39,0.00,,,0.00,,2013-05-04 16:33:00,
2013-05-04 12:42:00,66.0,40.0,-100.00,East,81,7.0,16.0,39,0.00,,,0.00,,2013-05-04 16:42:00,
2013-05-04 12:52:00,66.0,40.0,-100.00,East,81,7.0,16.0,39,0.00,,,0.00,,2013-05-04 16:52:00,
2013-05-04 13:22:00,68.0,39.0,-100.00,ESE,117,7.0,14.0,35,0.00,,,0.00,,2013-05-04 17:22:00,
2013-05-04 13:32:00,68.0,39.0,-100.00,ESE,117,7.0,14.0,35,0.00,,,0.00,,2013-05-04 17:32:00,
2013-05-04 13:42:00,68.0,39.0,-100.00,ESE,117,7.0,14.0,35,0.00,,,0.00,,2013-05-04 17:42:00,
2013-05-04 13:52:00,68.0,39.0,-100.00,ESE,117,7.0,14.0,35,0.00,,,0.00,,2013-05-04 17:52:00,
2013-05-04 14:22:00,69.0,41.0,-100.00,ESE,103,8.0,13.0,36,0.00,,,0.00,,2013-05-04 18:22:00,
2013-05-04 14:32:00,69.0,41.0,-100.00,ESE,103,8.0,13.0,36,0.00,,,0.00,,2013-05-04 18:32:00,
2013-05-04 14:42:00,69.0,41.0,-100.00,ESE,103,8.0,13.0,36,0.00,,,0.00,,2013-05-04 18:42:00,
2013-05-04 14:52:00,69.0,41.0,-100.00,ESE,103,8.0,13.0,36,0.00,,,0.00,,2013-05-04 18:52:00,
2013-05-04 15:21:00,69.0,42.0,-100.00,SE,130,6.0,14.0,38,0.00,,,0.00,,2013-05-04 19:21:00,
2013-05-04 15:32:00,69.0,42.0,-100.00,SE,130,6.0,14.0,38,0.00,,,0.00,,2013-05-04 19:32:00,
2013-05-04 15:42:00,69.0,42.0,-100.00,SE,130,6.0,14.0,38,0.00,,,0.00,,2013-05-04 19:42:00,
2013-05-04 15:52:00,69.0,42.0,-100.00,SE,130,6.0,14.0,38,0.00,,,0.00,,2013-05-04 19:52:00,
2013-05-04 16:22:00,72.0,46.0,-100.00,East,95,6.0,13.0,39,0.00,,,0.00,,2013-05-04 20:22:00,
2013-05-04 16:32:00,72.0,46.0,-100.00,East,95,6.0,13.0,39,0.00,,,0.00,,2013-05-04 20:32:00,
2013-05-04 16:42:00,72.0,46.0,-100.00,East,95,6.0,13.0,39,0.00,,,0.00,,2013-05-04 20:42:00,
2013-05-04 16:52:00,72.0,46.0,-100.00,East,95,6.0,13.0,39,0.00,,,0.00,,2013-05-04 20:52:00,
2013-05-04 17:22:00,70.0,45.0,-100.00,ESE,111,4.0,15.0,41,0.00,,,0.00,,2013-05-04 21:22:00,
2013-05-04 17:33:00,70.0,45.0,-100.00,ESE,111,4.0,15.0,41,0.00,,,0.00,,2013-05-04 21:33:00,
2013-05-04 17:43:00,70.0,45.0,-100.00,ESE,111,4.0,15.0,41,0.00,,,0.00,,2013-05-04 21:43:00,
2013-05-04 17:53:00,70.0,45.0,-100.00,ESE,111,4.0,15.0,41,0.00,,,0.00,,2013-05-04 21:53:00,
2013-05-04 18:22:00,70.0,45.0,-100.00,East,95,3.0,8.0,41,0.00,,,0.00,,2013-05-04 22:22:00,
2013-05-04 18:33:00,70.0,45.0,-100.00,East,95,3.0,8.0,41,0.00,,,0.00,,2013-05-04 22:33:00,
2013-05-04 18:42:00,70.0,45.0,-100.00,East,95,3.0,8.0,41,0.00,,,0.00,,2013-05-04 22:42:00,
2013-05-04 18:52:00,70.0,45.0,-100.00,East,95,3.0,8.0,41,0.00,,,0.00,,2013-05-04 22:52:00,
2013-05-04 19:22:00,65.0,50.0,-100.00,WNW,292,4.0,13.0,58,0.00,,,-99.99,,2013-05-04 23:22:00,
2013-05-04 19:32:00,65.0,50.0,-100.00,WNW,292,4.0,13.0,58,0.00,,,-99.99,,2013-05-04 23:32:00,
2013-05-04 19:42:00,65.0,50.0,-100.00,WNW,292,4.0,13.0,58,0.00,,,-99.99,,2013-05-04 23:42:00,
2013-05-04 19:52:00,65.0,50.0,-100.00,WNW,292,4.0,13.0,58,0.00,,,-99.99,,2013-05-04 23:52:00,
2013-05-04 20:22:00,62.0,50.0,-100.00,West,275,3.0,11.0,64,0.00,,,0.00,,2013-05-05 00:22:00,
2013-05-04 20:32:00,62.0,50.0,-100.00,West,275,3.0,11.0,64,0.00,,,0.00,,2013-05-05 00:32:00,
2013-05-04 20:42:00,62.0,50.0,-100.00,West,275,3.0,11.0,64,0.00,,,0.00,,2013-05-05 00:42:00,
2013-05-04 20:52:00,62.0,50.0,-100.00,West,275,3.0,11.0,64,0.00,,,0.00,,2013-05-05 00:52:00,
2013-05-04 21:22:00,56.0,52.0,-100.00,SW,236,4.0,12.0,87,0.04,,,0.04,,2013-05-05 01:22:00,
2013-05-04 21:32:00,56.0,52.0,-100.00,SW,236,4.0,12.0,87,0.04,,,0.04,,2013-05-05 01:32:00,
2013-05-04 21:42:00,56.0,52.0,-100.00,SW,236,4.0,12.0,87,0.04,,,0.04,,2013-05-05 01:42:00,
2013-05-04 21:52:00,56.0,52.0,-100.00,SW,236,4.0,12.0,87,0.04,,,0.04,,2013-05-05 01:52:00,
2013-05-04 22:22:00,56.0,52.0,-100.00,WSW,255,4.0,10.0,87,0.00,,,0.04,,2013-05-05 02:22:00,
2013-05-04 22:32:00,56.0,52.0,-100.00,WSW,255,4.0,10.0,87,0.00,,,0.04,,2013-05-05 02:32:00,
2013-05-04 22:42:00,56.0,52.0,-100.00,WSW,255,4.0,10.0,87,0.00,,,0.04,,2013-05-05 02:42:00,
2013-05-04 22:52:00,56.0,52.0,-100.00,WSW,255,4.0,10.0,87,0.00,,,0.04,,2013-05-05 02:52:00,
2013-05-04 23:22:00,55.0,52.0,-100.00,SW,236,4.0,11.0,89,0.00,,,0.04,,2013-05-05 03:22:00,
2013-05-04 23:33:00,55.0,52.0,-100.00,SW,236,4.0,11.0,89,0.00,,,0.04,,2013-05-05 03:33:00,
2013-05-04 23:42:00,55.0,52.0,-100.00,SW,236,4.0,11.0,89,0.00,,,0.04,,2013-05-05 03:42:00,
2013-05-04 23:53:00,55.0,52.0,-100.00,SW,236,4.0,11.0,89,0.00,,,0.04,,2013-05-05 03:53:00,